Погода в Дубовом

Россия / Липецкая область     52°23′00″N   40°18′28″E
темп.,
°C
ветер,
м/с
пор.,
м/с
влажн.,
%
обл.,
%
осадки,
мм/ч
давл.,
гПа
погр.,
м
17 августа, ср
ср1700:00+23в61436100 0.0 1017404
03:00+21в61442100 0.0 1017360
06:00+22всв51137100 0.0 1015348
09:00+23в51138100 0.0 1015296
12:00+23всв51154100 0.0 1015354
15:00+26в8144298 0.0 10151035
18:00+25всв61140100 0.0 1015559
21:00+23в61345100 0.0 1015454
18 августа, чт
чт1800:00+23всв71540100 0.0 1014526
03:00+23всв7174184 0.0 1013537
06:00+23всв81642100 0.0 1012595
09:00+25всв8164199 0.1 10131011
12:00+29вюв9122983 0.1 10131460
15:00+30в81129100 0.1 10121991
18:00+27всв61138100 0.0 1013620
21:00+23в61256100 0.0 1014544
19 августа, пт
пт1900:00+21всв8156699 0.1 1015811
03:00+18всв81781100 0.6 1016636
06:00+19всв91880100 0.0 10161124
09:00+18в81681100 2.3 1018953
12:00+19вюв61477100 0.5 1019822
15:00+21в81368100 1.9 10201010
18:00+18в91685100 1.7 1021886
21:00+18в102078100 5.7 10201017
20 августа, сб
сб2000:00+19в101972100 0.0 1021995
03:00+20вюв81756100 0.0 1021824
06:00+20вюв91741100 0.0 1022611
09:00+22вюв81436100 0.0 1023695
12:00+25вюв8113081 0.0 10231096
15:00+27вюв81027100 0.0 10221670
18:00+24вюв6123296 0.0 1022553
21:00+22вюв61430100 0.0 1023441
21 августа, вс
вс2100:00+20вюв61325100 0.0 1023354
03:00+19вюв51227100 0.0 1023351
06:00+17в51232100 0.0 1023280
09:00+21вюв61231100 0.0 1023470
12:00+24вюв792599 0.0 10231012
15:00+27вюв6819100 0.0 10221917
18:00+24в3831100 0.0 1021168
21:00+21в41030100 0.0 1021168